Location: Unspecified
(51.5147°N, 7.4673°E)
Time: 04:05:13
(UTC+01:00)

Vanguard 1 Rocket - Pass Details

Date: 16 February 2026
Orbit: 653 x 4214 km, 34.3° (Epoch: 5 March)

Event Time Altitude Azimuth Distance (km) Brightness Sun altitude
Rises 15:17:39 0° 236° (WSW) 4,890 12.6 18.2°
Reaches altitude 10° 15:20:33 10° 229° (SW) 4,275 13.1 17.9°
Maximum altitude 15:31:54 40° 165° (SSE) 3,679 11.1 16.7°
Drops below altitude 10° 15:51:09 10° 106° (ESE) 7,078 11.7 14.6°
Sets 15:57:49 0° 101° (E) 8,357 11.9 13.8°
